Weather History for KIDI - March, 2012

Change the Weather History Date:

Friday, March 9, 2012

  Actual Average Record
Temperature  
Mean Temperature 34 °F -  
Max Temperature 39 °F 47 °F 75 °F (1974)
Min Temperature 28 °F 25 °F -10 °F (1960)
Degree Days  
Heating Degree Days 32    
Moisture  
Dew Point 26 °F    
Average Humidity 74    
Maximum Humidity 100    
Minimum Humidity 52    
Precipitation  
Precipitation 0.00 in - - ()
Sea Level Pressure  
Sea Level Pressure 30.20 in    
Wind  
Wind Speed 12 mph (WNW)    
Max Wind Speed 24 mph    
Max Gust Speed 38 mph    
Visibility 10 miles    
Events      
Averages and records for this station are not official NWS values.
T = Trace of Precipitation, MM = Missing Value Source: NWS Daily Summary

Daily Weather History Graph

Daily Weather History Graph

Search for Another Location

Airport or City:

Trip Planner

Search our weather history database for the weather conditions in past years. The results will help you decide how hot, cold, wet, or windy it might be!

Date:

Astronomy

Mar. 09, 2012 Rise Set
Actual Time 6:36 AM EST 6:17 PM EST
Civil Twilight 6:09 AM EST 6:44 PM EST
Nautical Twilight 5:38 AM EST 7:16 PM EST
Astronomical Twilight 5:06 AM EST 7:48 PM EST
Moon 8:15 PM EST (3/9) 6:53 AM EST (3/9)
Length of Visible Light 12h 34m
Length of Day
11h 40m
Full, 98% of the Moon is Illuminated
Mar 9
Full
Mar 14
Last Quarter
Mar 22
New
Mar 30
First Quarter
Apr 6
Full

Hourly Weather History & Observations

Time (EST) Temp. Windchill Dew Point Humidity Pressure Visibility Wind Dir Wind Speed Gust Speed Precip Events Conditions
12:15 AM 37.4 °F 28.9 °F 33.8 °F 87% 30.10 in 10.0 mi WNW 13.8 mph 19.6 mph N/A   Scattered Clouds
12:35 AM 35.6 °F 28.6 °F 33.8 °F 93% 30.11 in 10.0 mi WNW 9.2 mph 18.4 mph N/A   Scattered Clouds
12:55 AM 35.6 °F 28.6 °F 33.8 °F 93% 30.11 in 10.0 mi WNW 9.2 mph - N/A   Clear
1:15 AM 35.6 °F 26.6 °F 32.0 °F 87% 30.12 in 10.0 mi WNW 13.8 mph 18.4 mph N/A   Clear
1:35 AM 35.6 °F 28.0 °F 30.2 °F 81% 30.13 in 10.0 mi WNW 10.4 mph 18.4 mph N/A   Clear
1:55 AM 33.8 °F 24.8 °F 30.2 °F 87% 30.13 in 10.0 mi WNW 12.7 mph 19.6 mph N/A   Clear
2:15 AM 33.8 °F 26.4 °F 30.2 °F 87% 30.13 in 10.0 mi WNW 9.2 mph - N/A   Clear
2:35 AM 33.8 °F 26.4 °F 30.2 °F 87% 30.13 in 10.0 mi WNW 9.2 mph - N/A   Clear
2:55 AM 33.8 °F 25.8 °F 28.4 °F 81% 30.13 in 10.0 mi NW 10.4 mph 17.3 mph N/A   Clear
3:15 AM 33.8 °F 27.0 °F 28.4 °F 81% 30.14 in 10.0 mi WNW 8.1 mph - N/A   Clear
3:35 AM 32.0 °F 23.0 °F 28.4 °F 87% 30.15 in 10.0 mi WNW 11.5 mph 18.4 mph N/A   Scattered Clouds
3:55 AM 32.0 °F 25.6 °F 28.4 °F 87% 30.15 in 10.0 mi WNW 6.9 mph 10.4 mph N/A   Scattered Clouds
4:15 AM 32.0 °F 24.8 °F 28.4 °F 87% 30.15 in 10.0 mi WNW 8.1 mph - N/A   Clear
4:35 AM 30.2 °F 23.4 °F 28.4 °F 93% 30.16 in 10.0 mi West 6.9 mph - N/A   Clear
4:55 AM 30.2 °F 23.4 °F 28.4 °F 93% 30.15 in 10.0 mi West 6.9 mph - N/A   Clear
5:15 AM 30.2 °F 23.4 °F 28.4 °F 93% 30.16 in 10.0 mi West 6.9 mph - N/A   Clear
5:35 AM 30.2 °F 23.4 °F 28.4 °F 93% 30.16 in 10.0 mi West 6.9 mph - N/A   Clear
5:55 AM 30.2 °F 24.3 °F 28.4 °F 93% 30.17 in 10.0 mi West 5.8 mph - N/A   Clear
6:15 AM 28.4 °F 21.2 °F 28.4 °F 100% 30.17 in 10.0 mi WSW 6.9 mph - N/A   Clear
6:35 AM 28.4 °F 21.2 °F 28.4 °F 100% 30.17 in 10.0 mi West 6.9 mph - N/A   Clear
6:55 AM 28.4 °F 21.2 °F 28.4 °F 100% 30.16 in 10.0 mi WSW 6.9 mph - N/A   Clear
7:15 AM 28.4 °F 20.4 °F 28.4 °F 100% 30.15 in 10.0 mi WSW 8.1 mph - N/A   Clear
7:35 AM 30.2 °F 22.6 °F 28.4 °F 93% 30.15 in 10.0 mi WSW 8.1 mph - N/A   Clear
7:55 AM 30.2 °F 22.6 °F 28.4 °F 93% 30.16 in 10.0 mi West 8.1 mph - N/A   Clear
8:15 AM 32.0 °F 22.5 °F 28.4 °F 87% 30.16 in 10.0 mi West 12.7 mph - N/A   Clear
8:35 AM 33.8 °F 24.3 °F 28.4 °F 81% 30.16 in 10.0 mi West 13.8 mph 20.7 mph N/A   Clear
8:55 AM 33.8 °F 22.8 °F 28.4 °F 81% 30.16 in 10.0 mi West 18.4 mph 24.2 mph N/A   Clear
9:15 AM 35.6 °F 26.2 °F 30.2 °F 81% 30.16 in 10.0 mi West 15.0 mph 23.0 mph N/A   Clear
9:55 AM 35.6 °F 26.2 °F 28.4 °F 75% 30.15 in 10.0 mi West 15.0 mph 25.3 mph N/A   Mostly Cloudy
10:15 AM 35.6 °F 27.1 °F 28.4 °F 75% 30.15 in 10.0 mi WNW 12.7 mph 21.9 mph N/A   Overcast
10:35 AM 37.4 °F 27.8 °F 28.4 °F 70% 30.15 in 10.0 mi West 17.3 mph 26.5 mph N/A   Overcast
10:55 AM 37.4 °F 27.8 °F 28.4 °F 70% 30.16 in 10.0 mi West 17.3 mph 27.6 mph N/A   Overcast
11:15 AM 37.4 °F 28.2 °F 28.4 °F 70% 30.17 in 10.0 mi WNW 16.1 mph 25.3 mph N/A   Overcast
11:35 AM 39.2 °F 28.5 °F 26.6 °F 61% 30.16 in 10.0 mi WNW 24.2 mph 38.0 mph N/A   Scattered Clouds
11:55 AM 37.4 °F 27.2 °F 26.6 °F 65% 30.17 in 10.0 mi West 19.6 mph 28.8 mph N/A   Scattered Clouds
12:15 PM 37.4 °F 27.8 °F 26.6 °F 65% 30.18 in 10.0 mi WNW 17.3 mph 28.8 mph N/A   Scattered Clouds
12:35 PM 37.4 °F 27.5 °F 26.6 °F 65% 30.19 in 10.0 mi WNW 18.4 mph 34.5 mph N/A   Scattered Clouds
12:55 PM 37.4 °F 27.5 °F 28.4 °F 70% 30.19 in 10.0 mi West 18.4 mph 26.5 mph N/A   Scattered Clouds
1:15 PM 37.4 °F 27.2 °F 28.4 °F 70% 30.19 in 10.0 mi WNW 19.6 mph 27.6 mph N/A   Scattered Clouds
1:35 PM 37.4 °F 27.5 °F 26.6 °F 65% 30.19 in 10.0 mi WNW 18.4 mph 31.1 mph N/A   Scattered Clouds
1:55 PM 37.4 °F 27.5 °F 26.6 °F 65% 30.19 in 10.0 mi WNW 18.4 mph 31.1 mph N/A   Scattered Clouds
2:15 PM 37.4 °F 28.5 °F 26.6 °F 65% 30.20 in 10.0 mi WNW 15.0 mph 27.6 mph N/A   Scattered Clouds
2:35 PM 35.6 °F 26.6 °F 26.6 °F 70% 30.21 in 10.0 mi NW 13.8 mph 27.6 mph N/A   Mostly Cloudy
2:55 PM 37.4 °F 28.5 °F 24.8 °F 60% 30.21 in 10.0 mi WNW 15.0 mph 27.6 mph N/A   Mostly Cloudy
3:15 PM 37.4 °F 26.9 °F 23.0 °F 56% 30.22 in 10.0 mi NW 20.7 mph 31.1 mph N/A   Mostly Cloudy
3:35 PM 37.4 °F 26.6 °F 21.2 °F 52% 30.23 in 10.0 mi NW 21.9 mph 32.2 mph N/A   Mostly Cloudy
3:55 PM 37.4 °F 27.8 °F 21.2 °F 52% 30.24 in 10.0 mi NW 17.3 mph 24.2 mph N/A   Mostly Cloudy
4:15 PM 37.4 °F 28.5 °F 21.2 °F 52% 30.24 in 10.0 mi NW 15.0 mph 27.6 mph N/A   Mostly Cloudy
4:35 PM 35.6 °F 25.9 °F 19.4 °F 52% 30.25 in 10.0 mi NW 16.1 mph 32.2 mph N/A   Mostly Cloudy
4:55 PM 37.4 °F 27.2 °F 23.0 °F 56% 30.27 in 10.0 mi NNW 19.6 mph 26.5 mph N/A   Mostly Cloudy
5:15 PM 33.8 °F 24.8 °F 21.2 °F 60% 30.27 in 10.0 mi NW 12.7 mph 20.7 mph N/A   Scattered Clouds
5:35 PM 33.8 °F 24.3 °F 21.2 °F 60% 30.28 in 10.0 mi NW 13.8 mph 18.4 mph N/A   Scattered Clouds
5:55 PM 33.8 °F 24.8 °F 19.4 °F 56% 30.29 in 10.0 mi NNW 12.7 mph 23.0 mph N/A   Mostly Cloudy
6:15 PM 33.8 °F 24.8 °F 17.6 °F 52% 30.29 in 10.0 mi NW 12.7 mph 27.6 mph N/A   Scattered Clouds
6:35 PM 33.8 °F 25.3 °F 19.4 °F 56% 30.30 in 10.0 mi NNW 11.5 mph 18.4 mph N/A   Mostly Cloudy
6:55 PM 32.0 °F 21.2 °F 17.6 °F 55% 30.31 in 10.0 mi NW 16.1 mph 20.7 mph N/A   Mostly Cloudy
7:15 PM 32.0 °F 23.6 °F 17.6 °F 55% 30.32 in 10.0 mi NW 10.4 mph 16.1 mph N/A   Scattered Clouds
7:35 PM 32.0 °F 23.6 °F 17.6 °F 55% 30.32 in 10.0 mi NW 10.4 mph 18.4 mph N/A   Scattered Clouds
7:55 PM 30.2 °F 21.3 °F 17.6 °F 60% 30.33 in 10.0 mi NW 10.4 mph - N/A   Scattered Clouds
8:15 PM 30.2 °F 21.9 °F 19.4 °F 64% 30.34 in 10.0 mi NW 9.2 mph 16.1 mph N/A   Clear
8:35 PM 30.2 °F 20.8 °F 19.4 °F 64% 30.34 in 10.0 mi NW 11.5 mph - N/A   Scattered Clouds
8:55 PM 30.2 °F 21.3 °F 19.4 °F 64% 30.35 in 10.0 mi NW 10.4 mph 16.1 mph N/A   Clear
9:15 PM 28.4 °F 19.1 °F 19.4 °F 69% 30.36 in 10.0 mi NW 10.4 mph 17.3 mph N/A   Scattered Clouds
9:35 PM 28.4 °F 16.2 °F 19.4 °F 69% 30.36 in 10.0 mi NW 17.3 mph 20.7 mph N/A   Scattered Clouds
9:55 PM 28.4 °F 18.5 °F 19.4 °F 69% 30.36 in 10.0 mi NW 11.5 mph 18.4 mph N/A   Scattered Clouds
10:15 PM 28.4 °F 18.5 °F 19.4 °F 69% 30.36 in 10.0 mi NW 11.5 mph 20.7 mph N/A   Clear
10:35 PM 28.4 °F 20.4 °F 19.4 °F 69% 30.36 in 10.0 mi NW 8.1 mph - N/A   Clear
10:55 PM 28.4 °F 22.2 °F 19.4 °F 69% 30.37 in 10.0 mi NW 5.8 mph - N/A   Clear
11:15 PM 28.4 °F 20.4 °F 19.4 °F 69% 30.37 in 10.0 mi NW 8.1 mph - N/A   Scattered Clouds
11:35 PM 28.4 °F 24.6 °F 19.4 °F 69% 30.38 in 10.0 mi NW 3.5 mph - N/A   Overcast
11:55 PM 28.4 °F 20.4 °F 19.4 °F 69% 30.38 in 10.0 mi NNW 8.1 mph - N/A   Overcast